Pagrindinis puslapis
METAR-TAF:

METAR-TAF

Oro uostai :

Niamėjus, Nigeris

platuma: 13-29N, ilguma: 002-10E, Aukštis: 223 m

Dabartinis oras

Ataskaita buvo paskelbta 1 valandą ir 15 minutes, ne 19:00 UTC
Vėjas 3 kt nuo kintamojo kryptimis
Temperatūra 37°C
Drėgmė 25%
Slėgis 1007 hPa
Matomumas 10 km arba daugiau
Mažai debesys ne aukštis 3000 ft

METAR: DRRN 061900Z VRB03KT 9999 FEW030 37/14 Q1007 NOSIG

Laikas: 21:15 (20:15 UTC)

Prognozė

Ataskaita buvo paskelbta 3 valandos ir 15 minutes, ne 17:00 UTC
Prognozė galioja nuo 06 metu 18 UTC su 07 metu 24 UTC
Vėjas 10 kt iš Vakarų/Šiaurės Vakarų
Matomumas: 8000 m
Mažai debesys ne aukštis 4000 ft
Tikimybė 30% :
Laikinai
nuo 06 metu 18 UTC su 06 metu 20 UTC
Vėjas 25 kt nuo kintamojo kryptimis
Matomumas: 2000 m
Mažai debesys ne aukštis 3300 ft, Liūtiniai kamuoliniai debesys.
Dulkes pustymas, perkūnija

TAF: DRRN 061700Z 0618/0724 30010KT 8000 FEW040 PROB30 TEMPO 0618/0620 VRB25KT 2000 BLDU TS FEW033CB

Orai ataskaitas ir orų prognozės (METAR, TAF).

turimą stotys yra geltonos ir raudonos taškus žemėlapyje.

Perkelti pele per norėdami pamatyti stoties vardą.

Tada spustelėkite, norėdami matyti oro stebėjimo ir prognozės.

Norėdami pakeisti žemėlapį: spustelėkite ant žalios mygtukų su juodo kryžiaus žemyn,; žalią mygtuką su brūkšneliu, jei norite nutolinti; arba žalių rodyklių gretimoms žemėlapius.


METAR-TAF: